This is the latest recevied weather packets stored in our database for station/object KD2ZLA. If no packets are shown the sender has not sent any weather packets the latest 10 day(s).
| Time | Temp. | Humidity | Pressure | Rain* | Wind** | Luminosity | Snow |
|---|---|---|---|---|---|---|---|
| 1777941102 | 18.33° C | 45% | 1002.5 hPa | 0 mm | - | 0 W/m² | - |
| 1777940797 | 18.33° C | 45% | 1002.4 hPa | 0 mm | - | 0 W/m² | - |
| 1777940496 | 18.33° C | 44% | 1002.2 hPa | 0 mm | - | 0 W/m² | - |
| 1777940192 | 18.33° C | 45% | 1002.3 hPa | 0 mm | - | 1 W/m² | - |
| 1777939890 | 18.89° C | 44% | 1002.1 hPa | 0 mm | - | 1 W/m² | - |
| 1777939587 | 18.89° C | 44% | 1002.2 hPa | 0 mm | - | 2 W/m² | - |
| 1777939285 | 18.89° C | 45% | 1002.1 hPa | 0 mm | - | 4 W/m² | - |
| 1777938981 | 18.89° C | 44% | 1002 hPa | 0 mm | - | 6 W/m² | - |
| 1777938678 | 18.89° C | 44% | 1002.2 hPa | 0 mm | - | 8 W/m² | - |
| 1777938375 | 18.89° C | 44% | 1002.3 hPa | 0 mm | - | 11 W/m² | - |
| 1777938072 | 19.44° C | 44% | 1002.2 hPa | 0 mm | - | 15 W/m² | - |
| 1777937768 | 19.44° C | 42% | 1002.4 hPa | 0 mm | - | 19 W/m² | - |
| 1777937464 | 19.44° C | 43% | 1002.2 hPa | 0 mm | - | 23 W/m² | - |
| 1777937161 | 19.44° C | 41% | 1002.4 hPa | 0 mm | - | 28 W/m² | - |
| 1777936859 | 19.44° C | 42% | 1002.2 hPa | 0 mm | - | 33 W/m² | - |
| 1777936555 | 20° C | 40% | 1002.3 hPa | 0 mm | - | 37 W/m² | - |
| 1777936251 | 20° C | 41% | 1002.4 hPa | 0 mm | - | 41 W/m² | - |
| 1777935947 | 20° C | 40% | 1002.5 hPa | 0 mm | - | 48 W/m² | - |
| 1777935647 | 20° C | 39% | 1002.6 hPa | 0 mm | - | 62 W/m² | - |
| 1777935343 | 20° C | 40% | 1002.5 hPa | 0 mm | - | 68 W/m² | - |
| 1777935040 | 20° C | 40% | 1002.4 hPa | 0 mm | - | 68 W/m² | - |
| 1777934737 | 20° C | 40% | 1002.5 hPa | 0 mm | - | 69 W/m² | - |
| 1777934434 | 20° C | 39% | 1002.4 hPa | 0 mm | - | 76 W/m² | - |
| 1777934131 | 20° C | 39% | 1002.5 hPa | 0 mm | - | 83 W/m² | - |
| 1777933827 | 20.56° C | 40% | 1002.6 hPa | 0 mm | - | 93 W/m² | - |
* Rain latest hour (hover to see other rain measurements)
** Current wind speed in m/s (hover to see current wind gust speed)